Miscellaneous Local Product
Issued by NWS Hastings, NE

Home | Current Version | Previous Version | Graphics & Text | Print | Product List | Glossary On
Versions: 1 2 3 4 5 6 7 8 9 10 11 12 13 14 15 16 17 18 19 20 21 22 23 24 25 26 27 28 29 30 31 32 33 34 35 36 37 38 39 40 41 42 43 44 45 46 47 48 49 50
616
AXUS43 KGID 010402
MISGRI

GID CWA HOURLY WEATHER ROUNDUP
NATIONAL WEATHER SERVICE HASTINGS NE
1100 PM CDT FRI SEP 30 2016

NOTE: "FAIR" INDICATES FEW OR NO CLOUDS BELOW 12,000 FEET WITH NO
SIGNIFICANT WEATHER AND/OR OBSTRUCTIONS TO VISIBILITY.

...SOUTH CENTRAL NEBRASKA...

CITY           SKY/WX    TMP DP  RH WIND       PRES   REMARKS
GRAND ISLAND   PTCLDY    54  45  71 SE3       30.17S
HASTINGS       PTCLDY    52  44  74 CALM      30.17S
KEARNEY        MOCLDY    55  41  58 S6        30.15F
ORD            MOCLDY    50  43  77 CALM      30.15S
YORK           CLOUDY    54  45  71 CALM      30.17S
AURORA         PTCLDY    52  46  77 SE3       30.17S
LEXINGTON      MOCLDY    55  46  71 E3        30.16F
HOLDREGE       MOCLDY    53  44  70 SE6       30.15F
HEBRON         PTCLDY    50  47  91 CALM      30.16S

...NEBRASKA PANHANDLE...

CITY           SKY/WX    TMP DP  RH WIND       PRES   REMARKS
CHADRON        PTCLDY    67  46  47 SW16      30.04F
ALLIANCE       CLOUDY    55  47  74 S6        30.11S
SCOTTSBLUFF    CLEAR     53  47  79 E7        30.11S
SIDNEY         CLOUDY    59  46  62 S10       30.16S

...WESTERN AND NORTH CENTRAL NEBRASKA...

CITY           SKY/WX    TMP DP  RH WIND       PRES   REMARKS
VALENTINE      CLOUDY    59  44  57 S10       30.11S
AINSWORTH      PTCLDY    57  46  66 SE8       30.13F
ONEILL         MOCLDY    54  45  71 SE6       30.17R
BROKEN BOW     PTCLDY    54  48  80 SE6       30.15F
IMPERIAL       PTCLDY    58  45  62 SE12      30.15S
NORTH PLATTE   PTCLDY    52  46  80 E7        30.14F
MCCOOK         PTCLDY    57  46  66 E8        30.15R

...EASTERN NEBRASKA...

CITY           SKY/WX    TMP DP  RH WIND       PRES   REMARKS
NORFOLK        PTCLDY    49  43  80 CALM      30.16S
SO SIOUX CITY  PTCLDY    54  49  83 E5        30.16S
TEKAMAH        CLOUDY    51  47  86 CALM      30.16R
COLUMBUS       PTCLDY    48  37  66 CALM      30.17S
ALBION         MOCLDY    49  45  86 CALM      30.17S
OMAHA EPPLEY   PTCLDY    60  52  74 SE5       30.16R
OFFUTT AFB     PTCLDY    53  53  99 CALM      30.15R
MILLARD        PTCLDY    58  55  88 CALM      30.16S
LINCOLN        PTCLDY    59  51  75 S5        30.17R
NEBRASKA CITY  CLOUDY    56  50  81 E5        30.16S
BEATRICE       PTCLDY    56  50  79 E5        30.16R
FALLS CITY     PTCLDY    57  53  86 CALM      30.15R

...NORTHERN KANSAS...

CITY           SKY/WX    TMP DP  RH WIND       PRES   REMARKS
GOODLAND       CLEAR     57  44  62 SE10      30.14F
HILL CITY      PTCLDY    53  48  83 E7        30.15S
NORTON         CLEAR     55  45  67 E3        30.14S
PHILLIPSBURG   CLEAR     55  46  71 NE5       30.15S
SMITH CENTER   CLEAR     54  46  76 CALM      30.15F HAZE
BELOIT         CLEAR     54  48  82 CALM      30.14S
HAYS           MOCLDY    57  43  58 E7        30.14S
RUSSELL        MOCLDY    59  47  64 E9        30.12F
CONCORDIA      MOCLDY    55  50  83 NE5       30.15S
SALINA         MOCLDY    60  51  72 CALM      30.14S
TOPEKA         MOCLDY    56  52  86 E3        30.13R



USA.gov is the U.S. government's official web portal to all federal, state and local government web resources and services.